Home   Weather   Plettenberg   Past weeks

Flag for Germany Past Weather in Plettenberg, North Rhine-Westphalia, Germany — Yesterday and Last 2 Weeks

Now
61 °F

Clear.


Feels Like: 61 °F
Forecast: 60 / 77 °F
Wind: 8 mph from West

Location: Koeln / Bonn

Current Time: Jul 21, 2017 at 2:54:47 am

Latest Report: Jul 21, 2017 at 2:20 am


Visibility: 10 mi

Pressure: 29.95 "Hg

Humidity: 72%

Dew Point: 52 °F

Location of PlettenbergLocation

Past Weather in Plettenberg — Graph

°F

Plettenberg Temperature Yesterday

Maximum temperature yesterday: 82 °F (at 2:50 pm)
Minimum temperature yesterday: 66 °F (at 12:20 am)
Average temperature yesterday: 72 °F

High & Low Weather Summary for the Past Weeks

 TemperatureHumidityPressure
High90 °F (Jul 19, 2:20 pm)100% (Jul 6, 5:50 am)30.24 "Hg (Jul 6, 5:50 am)
Low45 °F (Jul 13, 4:50 am)33% (Jul 7, 3:20 pm)29.74 "Hg (Jul 10, 1:50 pm)
Average68 °F73%29.99 "Hg
* Reported Jul 6 1:20 am — Jul 21 1:50 am, Plettenberg. Weather by CustomWeather, © 2017

Note: Actual official high and low records may vary slightly from our data, if they occured in-between our weather recording intervals... More about our weather records

Advertising

Plettenberg Weather History for the Previous 24 Hours

Scroll right to see more
 ConditionsComfort  
Time TempWeatherWind HumidityBarometerVisibility
1:50 am
Fri, Jul 21
63 °FPassing clouds.8 mph68%29.95 "HgN/A
1:20 am64 °FClear.10 mph64%29.95 "Hg10 mi
12:50 am64 °FClear.12 mph64%29.95 "Hg10 mi
12:20 am66 °FClear.10 mph68%29.95 "Hg10 mi
11:50 pm
Thu, Jul 20
66 °FClear.12 mph68%29.95 "Hg10 mi
11:20 pm66 °FClear.13 mph73%29.95 "Hg10 mi
10:50 pm66 °FClear.13 mph73%29.92 "Hg10 mi
10:20 pm66 °FPassing clouds.13 mph73%29.92 "HgN/A
9:50 pm68 °FPartly cloudy.17 mph69%29.92 "HgN/A
9:20 pm68 °FBroken clouds.20 mph69%29.89 "HgN/A
8:53 pm70 °FSunny.21 mph69%29.86 "Hg10 mi
8:20 pm75 °FSunny.18 mph50%29.86 "Hg10 mi
7:50 pm75 °FSunny.15 mph54%29.83 "Hg10 mi
7:20 pm77 °FSunny.15 mph47%29.83 "Hg10 mi
6:50 pm77 °FSunny.13 mph47%29.80 "Hg10 mi
6:20 pm79 °FSunny.15 mph45%29.80 "Hg10 mi
5:50 pm81 °FSunny.15 mph42%29.80 "Hg10 mi
5:20 pm81 °FSunny.17 mph45%29.80 "Hg10 mi
4:50 pm79 °FSunny.17 mph45%29.80 "Hg10 mi
4:36 pm79 °FSunny.16 mph45%29.80 "Hg10 mi
4:20 pm79 °FPassing clouds.17 mph45%29.80 "HgN/A
3:50 pm81 °FPassing clouds.17 mph42%29.80 "HgN/A
3:20 pm82 °FPassing clouds.16 mph40%29.80 "HgN/A
2:50 pm82 °FPassing clouds.16 mph40%29.80 "HgN/A
1:50 pm79 °FScattered clouds.17 mph48%29.80 "HgN/A
1:23 pm77 °FScattered clouds.17 mph57%29.80 "HgN/A
1:20 pm79 °FScattered clouds.17 mph54%29.80 "HgN/A
12:50 pm77 °FBroken clouds.16 mph61%29.80 "HgN/A
12:20 pm77 °FBroken clouds.14 mph65%29.80 "HgN/A
11:50 am75 °FBroken clouds.14 mph69%29.80 "HgN/A
11:20 am72 °FBroken clouds.8 mph83%29.80 "HgN/A
10:50 am72 °FBroken clouds.8 mph83%29.83 "HgN/A
10:20 am72 °FBroken clouds.10 mph83%29.83 "HgN/A
9:50 am68 °FSunny.9 mph94%29.83 "Hg10 mi
9:20 am66 °FLight rain. Broken clouds.6 mph94%29.83 "HgN/A
8:50 am66 °FLight rain. Broken clouds.5 mph94%29.80 "HgN/A
8:20 am66 °FLight rain. Broken clouds.5 mph94%29.80 "HgN/A
7:50 am66 °FLight rain. Broken clouds.2 mph94%29.80 "HgN/A
7:20 am66 °FRain showers. Partly sunny.3 mph94%29.80 "Hg5 mi
6:50 am66 °FRain showers. Broken clouds.5 mph94%29.80 "Hg5 mi
6:20 am66 °FThundershowers. Partly sunny.13 mph94%29.83 "Hg4 mi
5:50 am66 °FThunderstorms. Broken clouds.6 mph94%29.80 "HgN/A
5:20 am66 °FRain showers. Partly cloudy.6 mph94%29.77 "HgN/A
4:50 am66 °FSprinkles. Passing clouds.5 mph94%29.77 "HgN/A
4:20 am68 °FSprinkles. Passing clouds.5 mph88%29.77 "HgN/A
3:50 am68 °FSprinkles. Passing clouds.3 mph88%29.77 "HgN/A
3:20 am68 °FPassing clouds.3 mph88%29.77 "HgN/A
2:50 am68 °FSprinkles. Partly cloudy.6 mph83%29.80 "HgN/A
2:20 am68 °FSprinkles. Partly cloudy.2 mph88%29.80 "HgN/A
Weather by CustomWeather, © 2017

See weather overviewHow to use our weather pages